Location: Newark
(52.3500°N, 175.9667°E)
Time: 22:09:48
(UTC+00:00)

Altair - Pass Details

Date: 29 April 2021
Orbit: 1501 x 1683 km, 47.2° (Epoch: 05 May)

Event Time Altitude Azimuth Distance (km) Brightness Sun altitude
Rises 15:01:29 0° 214° (SW) 4,919 - -13.8°
Reaches altitude 10° 15:04:59 10° 207° (SSW) 3,923 - -13.4°
Exits shadow 15:06:07 14° 203° (SSW) 3,616 8.9 -13.3°
Maximum altitude 15:13:50 37° 145° (SE) 2,357 8.4 -12.5°
Drops below altitude 10° 15:22:28 10° 83° (E) 3,827 10.4 -11.6°
Sets 15:25:48 0° 75° (ENE) 4,788 11.3 -11.2°
